Regional Weather Roundup
Issued by NWS Kansas City/Pleasant Hill, MO

Home | Current Version | Previous Version | Text Only | Print | Product List | Glossary On
Versions: 1 2 3 4 5 6 7 8 9 10 11 12 13 14 15 16 17 18 19 20 21 22 23 24 25 26 27 28
000
ASUS43 KEAX 230810
RWREAX

WEATHER ROUNDUP FOR EASTERN KANSAS AND NORTHWEST MISSOURI
NATIONAL WEATHER SERVICE KANSAS CITY/PLEASANT HILL MO
300 AM CDT MON OCT 23 2017

KSZ040-057-103>105-MOZ028-029-037-043-230900-
...KANSAS CITY METROPOLITAN AREA...

CITY           SKY/WX    TMP DP  RH WIND       PRES   REMARKS
K.C. INTL      CLEAR     43  39  86 S8        30.00F
K.C. DOWNTOWN  CLEAR     50  42  74 SW3       30.00F
LEES SUMMIT    CLEAR     47  42  83 SW8       30.02F
OLATHE - IXD   CLEAR     43  40  89 S3        30.02F
OLATHE - OJC   CLEAR     46  39  76 S6        30.01F
LAWRENCE       CLEAR     44  41  89 E7        30.01F

$$

MOZ001>008-011>017-020>025-030>033-038>040-044>046-053-054-230900-
...NORTHERN AND CENTRAL MISSOURI...

CITY           SKY/WX    TMP DP  RH WIND       PRES   REMARKS
ST. JOSEPH     CLEAR     46  41  82 S7        29.99F
MOSBY          SUNNY     41  39  93 CALM      30.01F
WARRENSBURG    CLEAR     41  37  87 SW7       30.02F
WHITEMAN AFB   CLEAR     42  40  90 S3        29.98F
CLINTON        CLEAR     41  41 100 SW5       30.04S
SEDALIA        PTCLDY    47  47 100 SW9       30.03F
WARSAW         NOT AVBL
CHILLICOTHE      N/A     42  42 100 CALM      30.02S
KIRKSVILLE     CLOUDY    46  46 100 S5        30.01F

$$

MOZ041-047>049-056>058-063>065-088>090-097-230900-
...EASTERN AND SOUTHERN MISSOURI...

CITY           SKY/WX    TMP DP  RH WIND       PRES   REMARKS
ST. LOUIS INTL CLOUDY    51  51 100 NW10      29.93F
SPIRIT OF STL  CLOUDY    52  50  93 NW9       29.94F
COLUMBIA       CLOUDY    50  49  96 W3        30.00F
JEFFERSON CITY PTCLDY    51  48  89 W3        30.02F
ROLLA          CLOUDY    50  49  96 W7        30.01F
OSAGE BEACH    PTCLDY    50  50 100 S3        30.04F
SPRINGFIELD    PTCLDY    49  47  93 SW5       30.04F
BRANSON        CLOUDY    48  46  93 CALM      30.06F
JOPLIN         CLEAR     44  43  96 MISG      30.07F
WEST PLAINS    CLOUDY    50  48  93 NW7       30.02F

$$

IAZ060-094-KSZ022-034>040-054-083-096-NEZ052-066-093-230900-
...KANSAS...SOUTHEAST NEBRASKA AND IOWA...

CITY           SKY/WX    TMP DP  RH WIND       PRES   REMARKS
TOPEKA         CLEAR     46  39  76 S3        30.00S
MANHATTAN      CLEAR     45  40  82 CALM      29.99S
EMPORIA        CLEAR     50  39  66 SW12      30.02S
CHANUTE        CLEAR     45  39  79 S7        30.04F
WICHITA        PTCLDY    47  42  83 SW8       30.03S
OMAHA          CLOUDY    48  36  63 SE12      29.91F
LINCOLN        PTCLDY    52  32  46 S7        29.91F
FALLS CITY     CLEAR     48  35  60 S8        29.96R
LAMONI         CLEAR     45  41  86 S8        29.98F
DES MOINES     CLEAR     46  41  82 S8        29.95F

$$





USA.gov is the U.S. government's official web portal to all federal, state and local government web resources and services.